📊 Raw Sensor Data

Showing records 51951 to 51975 of 85,155 total

ID Distance (ft) Battery V Battery A Int Temp (°F) Int Humid (%) Ext Temp (°F) Solar V RSSI SNR Time Stamp
33217 14.5 3.82 0 71 39 68 5.10 -69 8 02/23/2025 03:00 PM
33216 14.4 3.82 0 70 40 68 5.10 -70 8 02/23/2025 02:45 PM
33215 14.5 3.81 0 70 41 67 5.10 -69 7 02/23/2025 02:30 PM
33214 14.5 4.05 0 73 40 68 5.10 -69 8 02/23/2025 02:00 PM
33213 14.6 3.81 0 75 39 69 5.10 -70 8 02/23/2025 01:45 PM
33212 14.6 3.81 0 76 38 69 5.10 -70 8 02/23/2025 01:30 PM
33211 14.6 4.08 0 81 35 71 5.10 -69 8 02/23/2025 01:15 PM
33210 14.6 3.81 0 78 36 71 5.10 -70 8 02/23/2025 01:00 PM
33209 14.6 3.81 0 74 37 70 5.10 -70 8 02/23/2025 12:45 PM
33208 14.6 3.80 0 73 37 69 5.10 -69 8 02/23/2025 12:30 PM
33207 14.5 3.81 0 72 37 69 5.10 -70 7 02/23/2025 12:15 PM
33206 14.6 3.81 0 70 37 65 5.10 -69 7 02/23/2025 12:00 PM
33205 14.5 3.81 0 70 37 66 5.10 -70 8 02/23/2025 11:45 AM
33204 14.5 3.83 0 70 36 66 5.10 -69 8 02/23/2025 11:30 AM
33203 14.5 3.85 0 70 35 68 5.10 -69 8 02/23/2025 11:15 AM
33202 14.5 3.83 0 66 36 64 5.10 -69 8 02/23/2025 11:00 AM
33201 14.5 3.83 0 64 36 63 5.10 -69 8 02/23/2025 10:45 AM
33200 14.4 4.08 132 61 37 60 4.50 -69 8 02/23/2025 10:30 AM
33199 14.4 3.95 49 61 37 60 4.50 -69 8 02/23/2025 10:15 AM
33198 14.4 3.97 85 60 36 60 4.50 -69 7 02/23/2025 10:00 AM
33197 14.4 3.95 77 60 36 59 4.50 -69 8 02/23/2025 09:45 AM
33196 14.4 4.01 77 58 36 58 4.50 -69 8 02/23/2025 09:30 AM
33195 14.4 3.93 81 57 36 57 4.50 -70 8 02/23/2025 09:15 AM
33194 14.4 3.87 25 56 36 56 4.50 -70 9 02/23/2025 09:00 AM
33193 14.4 3.86 32 55 36 55 4.50 -70 8 02/23/2025 08:45 AM